PBO Station Position Time Series. Reference Frame : NAM14
Format Version,1.1.0
4-character ID,NBPS
Station name,NBPS_SCGN_CS1999
Begin Date, 1999-12-22
End Date, 2008-09-11
Release Date, 2019-08-30
Reference position, 34.5086219247 North Latitude, -116.1481726103 East Longitude, 1098.80374 meters elevation,
Date, North (mm), East (mm), Vertical (mm), North Std. Deviation (mm), East Std. Deviation (mm),              Vertical Std. Deviation (mm), Quality,
1999-12-22,0.00, 0.00, 0.00, 3.25, 2.86, 13.34, repro,
1999-12-23,-0.59, -0.50, -3.73, 3.23, 3.14, 12.88, repro,
1999-12-24,-0.80, -0.25, 4.24, 3.44, 3.29, 14.40, repro,
1999-12-25,0.44, 0.93, -7.56, 4.09, 3.77, 16.92, repro,
2000-02-03,-3.23, -3.31, -7.85, 4.64, 4.92, 20.14, repro,
2000-02-04,-1.87, 0.69, 2.00, 2.14, 2.00, 8.78, repro,
2000-02-05,-2.88, 2.14, 3.69, 2.20, 2.03, 8.87, repro,
2000-02-06,-1.28, 2.94, 4.15, 2.03, 1.92, 8.08, repro,
2000-02-07,-1.67, 1.61, -5.84, 2.23, 1.98, 8.88, repro,
2000-02-08,-1.10, 1.63, 0.15, 2.11, 1.91, 8.75, repro,
2000-02-09,-2.11, 1.89, -3.60, 2.19, 2.06, 8.83, repro,
2000-02-10,-0.19, 3.35, -7.12, 2.01, 1.80, 7.93, repro,
2000-02-11,-0.34, 2.89, -2.68, 1.98, 1.79, 7.71, repro,
2000-02-12,-1.65, 0.75, -7.36, 2.00, 1.76, 7.89, repro,
2000-02-13,-1.70, 1.26, -0.36, 1.96, 1.74, 7.72, repro,
2000-02-14,-1.85, 2.10, 9.24, 2.02, 1.83, 7.95, repro,
2000-02-15,-1.23, 3.26, -2.26, 2.04, 1.83, 7.97, repro,
2000-02-16,-0.19, 1.70, -1.62, 2.00, 1.76, 7.90, repro,
2000-02-17,-0.94, 1.04, -3.78, 2.00, 1.80, 7.85, repro,
2000-02-18,-1.08, 2.15, -10.81, 2.02, 1.80, 7.84, repro,
2000-02-19,-1.34, 1.49, -5.19, 2.03, 1.82, 7.91, repro,
2000-02-20,-1.51, 1.09, 4.35, 2.06, 1.77, 8.03, repro,
2000-02-21,-3.20, 0.72, -0.65, 2.14, 1.95, 8.59, repro,
2000-02-22,0.34, 2.81, -7.69, 2.04, 1.83, 7.98, repro,
2000-02-23,-0.35, 0.95, -12.70, 2.03, 1.81, 8.06, repro,
2000-02-24,-0.73, 3.88, -1.56, 3.07, 2.73, 12.27, repro,
2000-02-25,-1.25, 2.50, 1.16, 1.97, 1.74, 7.72, repro,
2000-02-26,-0.86, 1.43, 2.26, 2.19, 2.12, 8.42, repro,
2000-02-27,-0.90, 1.14, -9.63, 2.01, 1.74, 7.86, repro,
2000-02-28,-3.07, 3.62, -4.57, 2.15, 1.95, 8.46, repro,
2000-02-29,-1.54, 2.15, -5.30, 2.33, 2.03, 9.39, repro,
2000-03-01,-6.31, 7.01, 4.96, 2.51, 2.78, 10.53, repro,
2000-03-02,-1.96, 3.49, -0.62, 2.26, 2.05, 8.64, repro,
2000-03-03,-0.24, 2.66, -1.14, 2.22, 1.94, 9.07, repro,
2000-03-04,-1.24, 1.63, -4.17, 2.17, 1.93, 8.61, repro,
2000-03-05,-1.24, 3.19, -3.22, 2.07, 1.82, 8.07, repro,
2000-03-06,-1.43, 3.50, 1.52, 2.35, 2.03, 9.23, repro,
2000-03-07,-0.02, 3.33, -1.02, 2.28, 2.06, 8.99, repro,
2000-03-08,-0.26, 2.33, -5.92, 2.25, 1.89, 8.90, repro,
2000-03-09,-1.44, 1.32, -9.67, 2.28, 2.07, 9.03, repro,
2000-03-10,-1.40, 3.38, -11.85, 2.42, 2.28, 9.39, repro,
2000-03-11,-1.56, 2.82, -13.05, 2.20, 1.99, 8.59, repro,
2000-03-12,-1.76, 3.83, -2.33, 2.79, 2.38, 10.87, repro,
2000-03-13,-1.43, 1.84, -2.68, 2.56, 2.31, 10.15, repro,
2000-03-14,-1.67, 1.66, -2.58, 2.33, 2.22, 9.32, repro,
2000-03-15,-2.04, 1.76, 1.25, 2.19, 1.95, 8.63, repro,
2000-03-16,-2.15, 3.99, 2.19, 2.26, 2.10, 9.03, repro,
2000-03-17,-1.98, 3.19, -2.77, 2.28, 2.16, 9.21, repro,
2000-03-18,-0.71, 2.67, -6.58, 2.19, 1.95, 8.34, repro,
2000-03-19,0.21, 3.19, -3.60, 2.13, 1.89, 8.17, repro,
2000-03-20,-4.40, 2.71, 4.18, 2.40, 2.01, 9.57, repro,
2000-03-21,-3.79, 3.81, -7.28, 2.27, 1.90, 8.61, repro,
2000-03-22,-0.76, 4.55, -7.53, 2.58, 2.07, 9.72, repro,
2000-03-23,-1.05, 2.84, -1.96, 2.24, 2.08, 8.63, repro,
2000-03-24,-2.54, 2.02, -5.98, 2.25, 2.13, 8.60, repro,
2000-03-25,-1.53, 3.93, -1.12, 2.06, 1.85, 8.00, repro,
2000-03-26,-3.07, 2.63, -4.04, 2.85, 2.61, 10.65, repro,
2000-03-27,-1.31, 2.87, 1.01, 2.26, 1.85, 8.77, repro,
2000-03-28,-2.87, 4.12, 2.44, 2.15, 1.85, 8.16, repro,
2000-03-29,-1.26, 3.09, 0.86, 2.21, 1.99, 8.54, repro,
2000-03-30,-1.50, 4.60, -13.47, 2.57, 2.01, 9.54, repro,
2000-03-31,-2.45, 6.82, -13.02, 2.73, 2.17, 10.44, repro,
2000-04-01,1.29, 2.20, -2.92, 3.87, 3.25, 14.78, repro,
2000-04-02,-3.23, 4.33, -0.07, 4.83, 4.49, 19.94, repro,
2000-04-03,-2.73, 3.29, -3.26, 2.10, 1.79, 8.14, repro,
2000-04-04,-1.61, 4.62, -0.28, 2.13, 1.75, 8.12, repro,
2000-04-05,0.56, 1.74, -1.37, 3.84, 3.19, 14.15, repro,
2000-04-06,-1.19, 3.54, -0.68, 2.66, 2.10, 9.90, repro,
2000-04-11,-6.41, 5.01, -12.94, 8.40, 7.44, 31.92, repro,
2000-04-12,-1.48, 4.01, 1.20, 2.16, 1.80, 8.54, repro,
2000-04-13,-1.15, 4.83, 0.88, 2.13, 1.81, 8.50, repro,
2000-04-14,0.83, 6.94, -2.31, 2.15, 1.83, 8.43, repro,
2000-04-15,-1.49, 4.54, 6.65, 2.12, 1.98, 8.23, repro,
2000-04-16,-1.40, 3.63, -6.45, 2.06, 1.81, 8.07, repro,
2000-04-17,-2.09, 3.49, 3.31, 2.12, 1.88, 8.35, repro,
2000-04-18,0.35, 9.42, -13.85, 2.90, 2.34, 11.02, repro,
2000-04-19,-4.55, -1.07, 12.34, 8.61, 17.86, 42.70, repro,
2000-04-20,-0.42, 3.62, -6.85, 2.66, 2.21, 10.23, repro,
2000-04-21,-2.54, 4.97, -3.68, 2.59, 2.12, 9.96, repro,
2000-04-24,-2.86, 4.14, 2.66, 2.27, 1.90, 9.10, repro,
2000-04-25,3.89, 4.16, 0.39, 6.45, 5.12, 26.11, repro,
2000-04-26,-5.10, 3.64, -3.06, 5.83, 5.61, 25.19, repro,
2000-04-27,-0.74, 3.26, -3.65, 2.18, 1.87, 8.60, repro,
2000-04-28,-2.23, 4.08, -1.68, 2.10, 1.83, 8.30, repro,
2000-04-29,-3.82, 4.03, 1.34, 2.12, 2.01, 8.48, repro,
2000-04-30,-2.08, 3.70, -4.92, 2.23, 1.99, 8.63, repro,
2000-05-01,-1.30, 4.29, 1.52, 3.07, 2.51, 11.87, repro,
2000-05-02,-2.53, 4.79, -3.35, 2.38, 2.04, 9.35, repro,
2000-05-03,-2.35, 4.71, 6.42, 2.19, 1.98, 8.65, repro,
2000-05-04,-2.06, 3.39, 8.16, 2.12, 1.92, 8.41, repro,
2000-05-05,-2.51, 3.38, 4.95, 2.08, 1.82, 8.19, repro,
2000-05-06,-2.82, 3.71, 8.67, 2.05, 1.74, 8.04, repro,
2000-05-07,-3.07, 4.59, 14.51, 2.06, 1.76, 8.13, repro,
2000-05-08,-2.43, 1.68, 13.01, 2.08, 1.77, 8.20, repro,
2000-05-09,-1.50, 4.19, 1.82, 2.09, 1.82, 8.21, repro,
2000-05-10,-3.63, 7.55, 9.88, 2.05, 1.75, 8.03, repro,
2000-05-11,-4.06, 5.90, 12.58, 2.12, 1.94, 8.38, repro,
2000-05-12,-3.18, 4.02, 11.10, 2.13, 1.96, 8.41, repro,
2000-05-13,2.06, 9.30, 12.64, 8.22, 5.97, 35.56, repro,
2000-05-14,-2.69, 5.62, 5.29, 2.30, 1.89, 8.82, repro,
2000-05-16,-3.06, 4.80, -0.28, 2.11, 1.85, 8.34, repro,
2000-05-17,-4.53, 5.42, 15.68, 2.08, 1.87, 8.22, repro,
2000-05-18,-3.27, 5.76, 13.09, 2.05, 1.74, 8.04, repro,
2000-05-19,-2.59, 3.95, 3.53, 2.02, 1.72, 7.93, repro,
2000-05-20,-2.60, 6.02, 7.80, 2.08, 1.80, 8.18, repro,
2000-05-22,-2.95, 5.01, 10.15, 2.10, 1.97, 8.39, repro,
2000-05-23,-5.57, 4.54, 11.08, 2.28, 2.10, 8.81, repro,
2000-05-24,-2.37, 4.23, 15.76, 2.30, 2.21, 8.91, repro,
2000-05-25,-3.04, 5.06, 10.22, 2.11, 1.90, 8.55, repro,
2000-05-26,-3.19, 5.10, 15.54, 2.10, 1.80, 8.18, repro,
2000-05-27,-4.46, 4.44, 11.33, 2.16, 1.94, 8.52, repro,
2000-05-28,-3.80, 5.49, -0.09, 2.19, 1.96, 8.66, repro,
2000-05-29,-2.60, 5.38, 11.04, 2.13, 1.99, 8.40, repro,
2000-05-30,-2.90, 5.38, 6.03, 2.13, 1.98, 8.40, repro,
2000-05-31,-1.87, 4.10, 9.04, 2.10, 1.85, 8.31, repro,
2000-06-01,-2.21, 4.51, 6.05, 2.14, 1.88, 8.42, repro,
2000-06-02,-2.30, 5.66, 5.04, 2.04, 1.84, 8.03, repro,
2000-06-03,-3.28, 4.05, 6.58, 2.04, 1.83, 7.99, repro,
2000-06-04,-2.94, 5.03, 4.76, 2.05, 1.96, 8.06, repro,
2000-06-05,-2.50, 6.69, 10.54, 2.05, 1.88, 7.99, repro,
2000-06-06,-2.34, 4.91, 6.68, 2.06, 1.86, 7.94, repro,
2000-06-07,-3.17, 5.37, 7.40, 2.06, 1.86, 7.98, repro,
2000-06-08,-4.75, 4.16, 8.53, 1.97, 1.73, 7.76, repro,
2000-06-09,-4.55, 4.78, 9.31, 2.01, 1.74, 7.94, repro,
2000-06-10,-2.82, 4.69, 11.35, 1.97, 1.76, 7.82, repro,
2000-06-11,-1.55, 3.09, 8.38, 2.04, 1.81, 7.89, repro,
2000-06-12,-2.63, 3.87, 9.69, 2.04, 1.83, 7.99, repro,
2000-06-13,-4.07, 3.80, 8.49, 2.09, 1.88, 8.12, repro,
2000-06-14,-4.28, 3.94, 10.69, 2.09, 1.92, 8.14, repro,
2000-06-15,-2.29, 3.45, 16.72, 2.19, 2.21, 8.69, repro,
2000-06-16,-2.30, 6.20, 17.84, 2.15, 1.97, 8.46, repro,
2000-06-17,-3.30, 4.58, 15.93, 2.10, 1.93, 8.16, repro,
2000-06-18,-2.04, 3.90, 9.68, 2.09, 1.90, 8.19, repro,
2000-06-19,-3.35, 6.09, 9.71, 2.11, 1.92, 8.39, repro,
2000-06-20,-3.77, 4.68, 15.09, 2.13, 1.96, 8.42, repro,
2000-06-21,-3.01, 5.92, 16.02, 2.15, 1.96, 8.33, repro,
2000-06-22,-5.05, 8.00, 18.49, 2.25, 1.94, 8.96, repro,
2000-06-23,-3.69, 4.55, 9.59, 2.16, 1.93, 8.61, repro,
2000-06-24,-3.32, 4.86, 4.03, 2.08, 1.93, 8.22, repro,
2000-06-25,-5.06, 5.86, 4.87, 2.05, 1.81, 8.15, repro,
2000-06-26,-1.76, 4.95, 2.89, 2.15, 1.91, 8.50, repro,
2000-06-27,-2.75, 6.29, 6.54, 2.36, 2.07, 9.14, repro,
2000-06-28,-3.69, 4.04, 2.17, 2.25, 2.01, 9.03, repro,
2000-06-29,-3.86, 2.93, 14.12, 2.18, 2.04, 8.79, repro,
2000-06-30,-3.57, 3.30, 9.00, 2.13, 1.96, 8.53, repro,
2000-07-01,-4.17, 5.06, 10.13, 2.17, 1.99, 8.69, repro,
2000-07-02,-2.66, 5.14, 13.10, 2.20, 1.98, 8.82, repro,
2000-07-03,-4.83, 2.56, 3.79, 2.17, 1.93, 8.66, repro,
2000-07-04,-4.18, 5.55, 7.27, 2.14, 1.84, 8.64, repro,
2000-07-05,-4.44, 6.07, 2.83, 2.16, 1.92, 8.67, repro,
2000-07-06,-4.99, 4.93, 3.00, 2.11, 1.92, 8.42, repro,
2000-07-07,-2.98, 4.31, 6.09, 2.09, 1.86, 8.17, repro,
2000-07-08,-2.41, 4.53, 2.08, 2.13, 1.92, 8.39, repro,
2000-07-10,-1.66, 4.35, 4.75, 2.18, 1.89, 8.46, repro,
2000-07-11,-3.42, 3.86, 18.35, 2.13, 1.93, 8.30, repro,
2000-07-12,-3.00, 4.16, 8.79, 2.13, 1.96, 8.23, repro,
2000-07-14,-2.54, 4.80, 9.17, 2.19, 1.98, 8.67, repro,
2000-07-15,-3.69, 5.28, 8.36, 2.27, 2.10, 8.86, repro,
2000-07-16,-4.91, 4.73, 8.01, 2.10, 1.93, 8.28, repro,
2000-07-17,-3.26, 7.41, 2.06, 2.10, 1.95, 8.24, repro,
2000-07-18,-3.64, 5.50, 5.83, 2.11, 2.03, 8.35, repro,
2000-07-19,-4.28, 5.47, 2.62, 2.22, 2.15, 8.82, repro,
2000-07-20,-2.97, 4.01, 8.68, 2.14, 2.06, 8.46, repro,
2000-07-21,-2.70, 5.14, 9.47, 2.13, 2.05, 8.39, repro,
2000-07-22,-3.80, 4.89, 10.79, 2.27, 2.13, 8.98, repro,
2000-07-23,-3.15, 4.26, 12.80, 2.23, 2.00, 8.56, repro,
2000-07-24,-4.73, 4.17, 6.77, 2.15, 2.11, 8.52, repro,
2000-07-25,-3.60, 5.24, 13.60, 2.13, 2.10, 8.39, repro,
2000-07-26,-2.99, 5.15, 14.33, 2.18, 2.12, 8.61, repro,
2000-07-27,-4.72, 5.42, 14.61, 2.27, 2.08, 8.89, repro,
2000-07-28,-3.77, 4.40, 8.09, 2.31, 2.14, 9.12, repro,
2000-07-29,-4.26, 6.10, 12.83, 2.31, 2.11, 9.13, repro,
2000-07-30,-3.29, 6.85, 15.34, 2.13, 2.02, 8.32, repro,
2000-07-31,-3.49, 5.61, 11.74, 2.14, 1.90, 8.32, repro,
2000-08-01,-2.14, 4.17, 9.54, 2.27, 2.20, 9.38, repro,
2000-08-02,-5.53, 4.17, 7.35, 2.28, 2.14, 9.07, repro,
2000-08-03,-5.29, 5.78, 10.95, 2.20, 2.12, 8.99, repro,
2000-08-04,-4.08, 7.26, 10.69, 2.31, 2.11, 9.06, repro,
2000-08-05,-4.09, 6.51, 10.79, 2.21, 2.14, 8.93, repro,
2000-08-06,-2.63, 5.65, 4.78, 2.30, 2.17, 9.15, repro,
2000-08-07,-3.05, 6.48, 10.44, 2.27, 2.08, 8.80, repro,
2000-08-08,-5.43, 5.12, 14.62, 2.13, 2.00, 8.44, repro,
2000-08-09,-5.47, 5.07, 12.84, 2.35, 2.21, 9.33, repro,
2000-08-10,-2.85, 7.43, 9.90, 2.56, 2.22, 9.75, repro,
2000-08-11,-3.57, 6.26, 10.77, 2.28, 2.16, 8.97, repro,
2000-08-12,-2.92, 6.11, 4.83, 2.26, 2.06, 8.80, repro,
2000-08-13,-3.91, 6.19, 11.43, 2.33, 2.11, 8.93, repro,
2000-08-14,-4.41, 6.63, 7.76, 2.28, 2.16, 9.04, repro,
2000-08-15,-2.71, 7.69, 4.62, 2.30, 1.98, 8.80, repro,
2000-08-16,-5.05, 7.86, 14.78, 2.24, 2.00, 8.49, repro,
2000-08-17,-3.39, 4.62, 11.46, 2.49, 2.11, 9.15, repro,
2000-08-18,-5.69, 5.04, 13.37, 2.29, 1.95, 8.83, repro,
2000-08-19,-5.31, 6.36, 7.06, 2.20, 2.04, 8.47, repro,
2000-08-20,-2.64, 7.22, 3.93, 2.32, 2.03, 9.01, repro,
2000-08-21,-4.11, 5.72, 10.36, 2.18, 1.92, 8.36, repro,
2000-08-22,-3.41, 6.41, 5.10, 2.28, 1.94, 8.66, repro,
2000-08-23,-2.95, 4.43, 10.65, 2.16, 1.88, 8.28, repro,
2000-08-24,-5.21, 4.94, 4.72, 2.44, 1.97, 9.26, repro,
2000-08-25,-5.38, 5.84, 0.54, 2.30, 1.88, 8.82, repro,
2000-08-26,-2.27, 6.73, 1.00, 2.35, 2.03, 9.12, repro,
2000-08-27,-3.49, 6.20, 17.88, 2.21, 1.97, 8.62, repro,
2000-08-28,-3.37, 7.29, 13.01, 2.25, 1.85, 8.67, repro,
2000-08-29,-4.65, 7.20, 8.72, 2.16, 1.83, 8.32, repro,
2000-08-30,-2.21, 7.34, 4.61, 2.24, 1.85, 8.55, repro,
2000-08-31,-4.90, 4.90, 4.48, 2.15, 1.76, 8.15, repro,
2000-09-01,-4.25, 6.38, 10.03, 2.16, 1.79, 8.28, repro,
2000-09-02,-4.52, 6.45, 10.83, 2.18, 1.80, 8.29, repro,
2000-09-04,-5.58, 7.38, 7.99, 2.34, 1.94, 8.73, repro,
2000-09-05,-3.87, 5.55, 0.46, 2.36, 1.99, 8.97, repro,
2000-09-06,-4.32, 7.62, 11.61, 2.18, 1.79, 8.34, repro,
2000-09-07,-4.04, 7.86, 15.22, 2.20, 1.94, 8.49, repro,
2000-09-08,-1.80, 6.75, 10.47, 2.24, 1.97, 8.61, repro,
2000-09-09,-4.07, 7.45, 8.51, 2.27, 1.95, 8.70, repro,
2000-09-10,-4.57, 7.05, 8.44, 2.25, 1.97, 8.75, repro,
2000-09-11,-3.35, 6.96, 10.43, 2.23, 1.96, 8.46, repro,
2000-09-12,-3.75, 8.52, -1.82, 2.25, 2.06, 8.60, repro,
2000-09-14,-3.78, 8.74, 4.22, 2.41, 2.22, 9.42, repro,
2000-09-15,-3.93, 8.09, -0.79, 2.26, 2.12, 8.78, repro,
2000-09-16,-5.62, 6.59, 6.47, 2.21, 2.09, 8.64, repro,
2000-09-17,-3.78, 8.38, 5.13, 2.26, 2.13, 8.73, repro,
2000-09-18,-3.95, 9.01, 8.96, 2.18, 2.05, 8.49, repro,
2000-09-19,-6.26, 6.28, 10.42, 2.26, 2.15, 8.81, repro,
2000-09-20,-2.92, 6.70, 11.05, 2.51, 2.25, 9.37, repro,
2000-09-21,-5.08, 6.92, 4.44, 2.50, 2.53, 9.80, repro,
2000-09-22,-5.27, 8.84, 6.91, 2.51, 2.20, 9.54, repro,
2000-09-23,-3.82, 7.52, 9.84, 2.21, 1.95, 8.66, repro,
2000-09-24,-4.77, 7.67, 5.88, 2.28, 1.96, 9.01, repro,
2000-09-25,-4.37, 7.25, 4.23, 2.41, 2.09, 9.37, repro,
2000-09-26,-3.62, 7.76, 1.68, 2.10, 1.85, 8.32, repro,
2000-09-27,-4.66, 8.13, 4.24, 2.22, 2.04, 8.74, repro,
2000-09-28,-4.90, 7.56, 5.06, 2.16, 2.12, 8.63, repro,
2000-09-29,-3.38, 7.70, 5.62, 2.14, 1.85, 8.35, repro,
2000-09-30,-4.35, 7.24, 5.60, 2.08, 2.01, 8.15, repro,
2000-10-01,-4.95, 5.34, 8.67, 2.12, 2.02, 8.30, repro,
2000-10-02,-4.62, 7.12, 8.59, 2.18, 1.98, 8.39, repro,
2000-10-03,-6.47, 6.62, 2.44, 3.05, 2.66, 12.06, repro,
2000-10-04,-2.65, 7.64, 8.99, 2.09, 1.81, 8.32, repro,
2000-10-05,-5.09, 4.38, 5.36, 2.06, 1.84, 8.07, repro,
2000-10-06,-4.78, 6.90, 1.93, 2.03, 1.77, 7.99, repro,
2000-10-07,-4.31, 7.69, 7.87, 2.03, 1.78, 8.01, repro,
2000-10-08,-4.79, 7.67, 1.73, 2.04, 1.82, 8.09, repro,
2000-10-09,-4.21, 7.58, 10.86, 2.23, 2.01, 8.88, repro,
2000-10-10,-6.05, 8.47, 12.48, 2.10, 1.80, 8.25, repro,
2000-10-11,-3.98, 7.95, 5.12, 2.10, 1.82, 8.30, repro,
2000-10-12,-4.03, 7.03, -7.31, 2.08, 1.85, 8.18, repro,
2000-10-13,-3.99, 8.30, 4.55, 2.10, 1.96, 8.32, repro,
2000-10-14,-5.10, 7.07, 5.25, 2.14, 1.82, 8.23, repro,
2000-10-15,-6.10, 6.54, 5.69, 2.77, 2.51, 10.86, repro,
2000-10-16,-3.96, 7.61, 6.44, 2.07, 1.85, 8.03, repro,
2000-10-17,-2.94, 6.27, 6.19, 2.23, 1.87, 8.47, repro,
2000-10-18,-3.28, 7.67, 1.70, 2.17, 1.89, 8.18, repro,
2000-10-19,-3.89, 8.13, 9.22, 2.20, 1.93, 8.95, repro,
2000-10-20,-4.28, 7.09, 4.10, 2.34, 1.98, 9.17, repro,
2000-10-21,-4.62, 6.23, 13.48, 2.24, 1.96, 8.70, repro,
2000-10-22,-4.53, 5.95, 3.12, 2.45, 2.15, 9.75, repro,
2000-10-23,-3.35, 5.81, 0.78, 2.30, 1.95, 9.17, repro,
2000-10-24,-3.71, 7.43, 2.15, 2.10, 1.87, 8.19, repro,
2000-10-25,-2.72, 6.43, 2.36, 2.07, 1.87, 8.01, repro,
2000-10-26,-3.54, 5.54, 9.00, 2.08, 1.77, 8.10, repro,
2000-10-27,-4.26, 7.06, 12.77, 2.19, 1.89, 8.63, repro,
2000-10-28,-4.70, 7.64, 9.54, 2.18, 1.89, 8.55, repro,
2000-10-29,-3.95, 6.29, 4.22, 2.08, 1.78, 8.16, repro,
2000-10-30,-5.13, 8.64, 5.77, 2.11, 1.86, 8.21, repro,
2000-10-31,-3.98, 7.86, 7.26, 2.13, 1.86, 8.28, repro,
2000-11-01,-4.00, 6.44, 2.04, 2.11, 1.84, 8.44, repro,
2000-11-02,-3.60, 6.47, 3.03, 2.10, 1.91, 8.29, repro,
2000-11-03,-4.15, 6.78, 5.49, 2.23, 1.97, 8.64, repro,
2000-11-04,-4.30, 5.77, 6.33, 2.08, 1.87, 8.02, repro,
2000-11-05,-5.62, 7.53, 6.95, 2.22, 1.90, 8.48, repro,
2000-11-06,-6.03, 8.28, 0.20, 2.12, 1.87, 8.34, repro,
2000-11-07,-5.85, 7.17, 2.18, 2.17, 1.90, 8.40, repro,
2000-11-08,-4.38, 7.29, 3.27, 2.09, 1.90, 8.03, repro,
2000-11-09,-5.27, 7.07, 12.39, 2.26, 1.96, 8.61, repro,
2000-11-10,-3.58, 8.33, -0.35, 2.32, 1.94, 9.04, repro,
2000-11-11,-6.06, 8.59, 3.70, 2.22, 1.87, 8.80, repro,
2000-11-12,-3.96, 8.14, 11.05, 2.01, 1.77, 7.91, repro,
2000-11-13,-3.13, 7.31, 2.60, 2.11, 1.90, 8.15, repro,
2000-11-14,-4.67, 6.58, 2.80, 2.17, 1.98, 8.28, repro,
2000-11-15,-3.86, 7.38, 2.41, 2.26, 1.96, 9.05, repro,
2000-11-16,-4.53, 8.25, 7.44, 2.20, 1.91, 8.42, repro,
2000-11-17,-5.37, 8.16, 3.58, 2.08, 1.85, 8.12, repro,
2000-11-18,-4.77, 8.37, 2.79, 2.11, 1.89, 8.15, repro,
2000-11-19,-4.16, 8.14, 1.07, 2.25, 2.12, 8.77, repro,
2000-11-20,-4.15, 7.68, 0.39, 2.33, 1.99, 8.83, repro,
2000-11-21,-4.68, 8.09, -1.82, 2.18, 1.94, 8.42, repro,
2000-11-22,-3.91, 9.16, 1.09, 2.10, 1.87, 8.10, repro,
2000-11-23,-5.02, 8.32, 2.93, 2.13, 1.86, 8.32, repro,
2000-11-24,-4.95, 7.51, 8.10, 2.18, 1.89, 8.45, repro,
2000-11-25,-3.98, 8.32, 5.67, 2.30, 2.05, 9.28, repro,
2000-11-26,-4.63, 8.46, 9.20, 2.30, 2.06, 9.20, repro,
2000-11-27,-4.22, 8.11, 4.34, 2.40, 2.17, 9.37, repro,
2000-11-28,-4.99, 9.41, 5.92, 2.23, 2.04, 8.86, repro,
2000-11-29,-5.13, 8.43, 5.03, 2.26, 2.14, 9.13, repro,
2000-11-30,-4.20, 8.44, -2.91, 2.14, 1.93, 8.44, repro,
2000-12-01,-4.76, 8.64, 0.03, 2.41, 1.98, 9.52, repro,
2000-12-02,-4.19, 8.37, -4.54, 2.46, 2.18, 9.75, repro,
2000-12-03,-5.72, 8.02, -1.62, 2.43, 2.18, 9.37, repro,
2000-12-04,-5.48, 8.19, -0.40, 2.82, 2.66, 11.61, repro,
2000-12-05,-4.96, 8.26, 2.24, 2.32, 2.08, 9.47, repro,
2000-12-06,-5.29, 8.62, 1.12, 2.30, 2.03, 9.42, repro,
2000-12-07,-6.46, 8.36, -3.82, 2.22, 1.98, 8.75, repro,
2000-12-08,-5.43, 7.49, 0.54, 2.40, 2.18, 9.71, repro,
2000-12-09,-6.08, 8.77, 1.34, 2.25, 2.03, 8.87, repro,
2000-12-10,-6.10, 9.28, 3.09, 2.49, 2.21, 9.87, repro,
2000-12-11,-5.24, 8.59, 6.05, 2.06, 1.84, 8.32, repro,
2000-12-12,-5.29, 7.98, -2.75, 2.05, 1.83, 8.40, repro,
2000-12-13,-6.85, 8.65, 0.81, 2.03, 1.74, 8.00, repro,
2000-12-14,-5.51, 9.69, -4.71, 1.99, 1.75, 7.91, repro,
2000-12-15,-5.24, 9.02, 3.49, 2.04, 1.83, 8.23, repro,
2000-12-16,-4.97, 8.66, -6.49, 2.02, 1.78, 8.03, repro,
2000-12-17,-4.72, 8.46, -3.25, 2.21, 1.89, 8.85, repro,
2000-12-18,-5.47, 8.38, -10.22, 2.10, 1.83, 8.41, repro,
2000-12-19,-5.77, 8.47, -6.38, 2.21, 1.90, 8.95, repro,
2000-12-20,-4.53, 8.35, -2.57, 2.01, 1.77, 7.95, repro,
2000-12-21,-5.42, 9.38, -1.01, 2.14, 1.88, 8.51, repro,
2000-12-22,-5.90, 9.02, -6.03, 2.05, 1.76, 7.89, repro,
2000-12-23,-5.35, 8.19, -7.26, 2.02, 1.76, 7.90, repro,
2000-12-24,-5.24, 8.07, -8.98, 1.98, 1.74, 7.78, repro,
2000-12-25,-5.22, 8.58, -8.86, 1.96, 1.72, 7.71, repro,
2000-12-26,-5.69, 8.56, -4.54, 2.01, 1.74, 7.80, repro,
2000-12-27,-6.05, 8.49, -9.99, 2.11, 1.85, 8.24, repro,
2000-12-28,-5.38, 8.32, -5.78, 2.07, 1.76, 8.04, repro,
2000-12-29,-5.00, 8.91, -3.86, 2.05, 1.74, 8.07, repro,
2000-12-30,-5.66, 8.22, -2.66, 2.08, 1.83, 8.35, repro,
2000-12-31,-5.85, 7.67, -4.45, 2.08, 1.84, 8.46, repro,
2001-01-01,-5.72, 8.14, 1.52, 2.20, 1.89, 8.90, repro,
2001-01-02,-6.38, 7.58, -8.91, 2.20, 1.86, 8.91, repro,
2001-01-03,-5.11, 8.41, -5.34, 2.06, 1.86, 8.28, repro,
2001-01-04,-4.40, 7.86, -8.71, 2.14, 1.86, 8.32, repro,
2001-01-05,-5.06, 8.06, -1.08, 2.17, 1.85, 8.39, repro,
2001-01-06,-6.99, 7.35, 2.66, 2.28, 1.97, 8.96, repro,
2001-01-07,-4.35, 7.68, 2.38, 2.03, 1.75, 8.02, repro,
2001-01-08,-4.91, 8.12, 3.06, 2.19, 1.87, 8.68, repro,
2001-01-09,-3.99, 8.29, -0.12, 2.06, 1.78, 8.05, repro,
2001-01-10,-5.19, 7.71, -3.41, 2.10, 1.79, 8.21, repro,
2001-01-11,-6.50, 8.23, -2.56, 2.09, 1.87, 8.46, repro,
2001-01-12,-4.46, 8.27, -1.34, 2.02, 1.75, 7.96, repro,
2001-01-13,-4.11, 8.94, 4.32, 2.40, 2.09, 9.76, repro,
2001-01-14,-4.20, 9.75, -5.06, 2.39, 2.07, 9.30, repro,
2001-01-15,-4.48, 8.62, -6.22, 2.26, 1.96, 8.82, repro,
2001-01-16,-3.98, 8.42, -12.16, 2.20, 2.02, 8.97, repro,
2001-01-17,-5.61, 7.10, -6.69, 2.06, 1.76, 8.08, repro,
2001-01-18,-4.94, 9.00, -2.49, 2.16, 1.89, 8.69, repro,
2001-01-19,-4.72, 8.83, -0.92, 2.14, 1.83, 8.35, repro,
2001-01-20,-4.90, 8.15, -5.71, 2.03, 1.78, 8.11, repro,
2001-01-21,-5.49, 7.81, -9.44, 2.04, 1.79, 8.20, repro,
2001-01-22,-5.97, 8.88, -1.54, 2.02, 1.76, 7.98, repro,
2001-01-23,-7.15, 7.54, -5.66, 2.44, 2.23, 10.09, repro,
2001-01-24,-6.21, 8.93, -1.38, 2.54, 2.23, 10.12, repro,
2001-01-25,-4.45, 9.04, -18.96, 2.20, 1.88, 8.79, repro,
2001-01-26,-5.39, 8.55, -9.69, 2.44, 2.14, 10.00, repro,
2001-01-27,-5.42, 7.64, -0.67, 2.37, 1.97, 9.48, repro,
2001-01-28,-5.54, 7.78, 0.04, 2.28, 1.94, 9.10, repro,
2001-01-29,-5.25, 8.07, -2.03, 2.00, 1.74, 7.82, repro,
2001-01-30,-5.37, 9.77, -12.32, 2.09, 1.78, 8.06, repro,
2001-01-31,-5.73, 8.50, -7.63, 2.07, 1.85, 8.26, repro,
2001-02-01,-4.74, 8.04, -9.07, 1.99, 1.72, 7.82, repro,
2001-02-02,-5.34, 8.09, -6.16, 2.04, 1.75, 7.89, repro,
2001-02-03,-4.33, 8.53, -3.70, 2.05, 1.82, 8.00, repro,
2001-02-04,-5.17, 8.52, -6.53, 2.05, 1.79, 8.03, repro,
2001-02-05,-4.86, 8.67, -9.27, 2.13, 1.83, 8.15, repro,
2001-02-06,-5.69, 9.02, -7.30, 2.02, 1.74, 7.90, repro,
2001-02-07,-5.05, 7.60, -6.62, 2.05, 1.78, 7.87, repro,
2001-02-08,-5.45, 9.56, -1.79, 2.15, 1.94, 8.51, repro,
2001-02-09,-24.89, -14.45, -28.98, 148.78, 268.48, 562.83, repro,
2001-02-10,-3.62, 8.74, -0.93, 2.03, 1.74, 7.86, repro,
2001-02-11,-5.41, 10.00, -4.10, 2.12, 1.84, 8.08, repro,
2001-02-12,-4.45, 7.77, -4.93, 2.11, 1.81, 8.16, repro,
2001-02-13,-6.09, 8.04, -1.92, 2.02, 1.72, 7.82, repro,
2001-02-14,-5.91, 8.63, -1.49, 2.05, 1.79, 7.92, repro,
2001-02-15,-4.55, 9.19, -3.78, 2.07, 1.85, 7.99, repro,
2001-02-16,-4.67, 8.43, -8.05, 2.09, 1.78, 8.11, repro,
2001-02-17,-5.75, 8.41, -5.63, 2.14, 1.81, 8.10, repro,
2001-02-18,-4.94, 8.02, -1.99, 2.06, 1.78, 7.90, repro,
2001-02-19,-6.09, 8.48, 1.57, 2.33, 1.92, 8.76, repro,
2001-02-20,-6.48, 8.27, -3.30, 2.14, 1.91, 8.36, repro,
2001-02-21,-5.95, 8.18, 3.43, 2.18, 1.99, 8.31, repro,
2001-02-22,-4.80, 8.46, -1.60, 2.05, 1.80, 7.96, repro,
2001-02-23,-6.05, 9.53, 0.21, 2.07, 1.85, 8.04, repro,
2001-02-24,-5.91, 8.13, -3.61, 2.26, 2.04, 8.71, repro,
2001-02-25,-5.00, 8.75, -7.62, 2.08, 1.85, 8.09, repro,
2001-02-26,-4.90, 8.01, -4.43, 2.25, 2.06, 8.71, repro,
2001-02-27,-4.98, 7.98, -11.81, 2.11, 1.84, 8.46, repro,
2001-02-28,-6.88, 6.06, -4.77, 3.47, 3.24, 15.16, repro,
2001-03-01,-6.06, 7.43, 13.07, 3.20, 3.00, 12.65, repro,
2001-03-02,-5.43, 8.87, 2.28, 2.66, 2.31, 10.03, repro,
2001-03-03,-5.49, 9.00, 3.36, 2.19, 1.96, 8.46, repro,
2001-03-04,-5.06, 8.05, -5.33, 2.16, 1.86, 8.36, repro,
2001-03-05,-6.64, 8.29, -7.44, 2.21, 1.98, 8.53, repro,
2001-03-06,-6.48, 10.19, -10.63, 2.04, 1.80, 8.03, repro,
2001-03-07,-5.68, 8.68, -4.20, 2.02, 1.75, 7.91, repro,
2001-03-08,-5.32, 9.05, 8.12, 2.15, 1.94, 8.46, repro,
2001-03-09,-7.06, 8.40, -4.43, 2.19, 1.89, 8.61, repro,
2001-03-10,-5.67, 8.96, -1.76, 2.18, 1.89, 8.51, repro,
2001-03-11,-6.54, 8.12, 0.66, 2.28, 2.03, 8.78, repro,
2001-03-12,-5.85, 9.04, 4.34, 2.27, 2.05, 8.65, repro,
2001-03-13,-5.16, 8.69, -1.17, 2.15, 1.90, 8.24, repro,
2001-03-14,-6.17, 9.77, 2.21, 2.04, 1.85, 8.02, repro,
2001-03-15,-5.58, 9.16, 1.59, 2.07, 1.91, 8.15, repro,
2001-03-16,-5.68, 9.11, -3.19, 2.10, 1.98, 8.30, repro,
2001-03-17,-6.13, 9.33, -1.29, 2.06, 1.87, 7.97, repro,
2001-03-18,-5.88, 8.26, -5.48, 2.01, 1.83, 7.85, repro,
2001-03-19,-5.78, 8.53, -4.15, 2.01, 1.78, 7.88, repro,
2001-03-20,-5.76, 9.14, -5.40, 2.01, 1.76, 7.88, repro,
2001-03-21,-6.75, 8.68, -6.36, 2.02, 1.77, 7.92, repro,
2001-03-22,-6.84, 9.05, 1.73, 2.01, 1.76, 7.83, repro,
2001-03-23,-5.20, 9.09, 1.76, 2.01, 1.79, 7.91, repro,
2001-03-24,-6.18, 8.79, -1.69, 2.02, 1.78, 7.88, repro,
2001-03-25,-5.27, 8.15, -2.15, 2.01, 1.78, 7.91, repro,
2001-03-26,-7.47, 9.49, 1.31, 2.14, 1.90, 8.29, repro,
2001-03-27,-3.35, 7.88, -2.93, 3.72, 3.24, 13.97, repro,
2001-03-28,-5.23, 8.89, 2.88, 2.14, 1.82, 8.23, repro,
2001-03-29,-7.94, 11.34, -3.98, 2.03, 1.78, 7.96, repro,
2001-03-30,-5.91, 8.73, -1.09, 2.01, 1.77, 7.89, repro,
2001-03-31,-5.73, 9.30, -6.20, 2.03, 1.79, 8.01, repro,
2001-04-01,-5.32, 8.91, 3.96, 2.09, 1.85, 8.17, repro,
2001-04-02,-6.15, 9.18, 5.77, 2.07, 1.84, 8.15, repro,
2001-04-03,-5.27, 8.66, 4.90, 2.14, 1.90, 8.11, repro,
2001-04-04,-5.49, 9.72, 0.13, 2.10, 1.99, 8.19, repro,
2001-04-05,-4.69, 8.32, -1.85, 2.06, 1.87, 8.16, repro,
2001-04-06,-6.81, 9.33, 4.23, 2.06, 1.86, 8.15, repro,
2001-04-07,-5.65, 7.38, 4.59, 2.08, 1.85, 8.10, repro,